FW6759 Weather Reports


time (UTC)temp
C
wind
direction
speed
KPH
gust
KPH
rain 1hr
cm
rain 24hr
cm
rain mn
cm
humidity
%
barometer
mb
20260508075008 5 164 78.9 86.9 0.00 0.00 0.00 76 1015.0
20260508073006 5 163 82.1 98.2 0.00 0.00 0.00 77 1016.0
20260508072006 5 169 59.5 72.4 0.00 0.00 0.00 78 1015.3
20260508071006 5 182 57.9 74.0 0.00 0.00 0.00 80 1015.5
20260508070007 5 151 48.3 54.7 0.00 0.00 0.00 81 1015.6
20260508065007 5 148 46.7 54.7 0.00 0.00 0.00 78 1015.6
20260508064007 4 155 48.3 54.7 0.00 0.00 0.00 79 1015.5
20260508063007 5 154 48.3 51.5 0.00 0.00 0.00 77 1015.7
20260508062006 5 161 54.7 61.2 0.00 0.00 0.00 76 1015.8
20260508060006 4 169 62.8 72.4 0.00 0.00 0.00 75 1015.8
20260508055006 5 165 66.0 75.6 0.00 0.00 0.00 73 1015.5
20260508054006 5 171 69.2 80.5 0.00 0.00 0.00 69 1015.7
20260508053006 5 176 61.2 66.0 0.00 0.00 0.00 69 1016.0
20260508052006 5 172 62.8 69.2 0.00 0.00 0.00 72 1016.1
20260508051006 5 169 67.6 72.4 0.00 0.00 0.00 72 1015.9
20260508045006 5 169 53.1 62.8 0.00 0.00 0.00 68 1016.2
20260508043006 5 184 43.5 54.7 0.00 0.00 0.00 67 1017.4
20260508042006 7 177 40.2 49.9 0.00 0.00 0.00 59 1017.1
20260508041006 8 169 46.7 64.4 0.00 0.00 0.00 46 1016.8
20260508040006 8 168 41.8 51.5 0.00 0.00 0.00 41 1016.4
20260508035010 8 171 38.6 48.3 0.00 0.00 0.00 39 1016.2
20260508034006 9 182 30.6 37.0 0.00 0.00 0.00 38 1016.2
20260508032006 9 171 32.2 38.6 0.00 0.00 0.00 36 1015.6
20260508031006 9 165 30.6 35.4 0.00 0.00 0.00 35 1015.7
20260508030006 9 170 33.8 43.5 0.00 0.00 0.00 36 1015.9
20260508025006 9 168 37.0 43.5 0.00 0.00 0.00 33 1015.5
20260508024006 10 162 37.0 40.2 0.00 0.00 0.00 32 1015.5
20260508023006 9 173 38.6 43.5 0.00 0.00 0.00 32 1015.5
20260508022006 9 171 37.0 43.5 0.00 0.00 0.00 32 1015.5
20260508021006 9 177 40.2 48.3 0.00 0.00 0.00 33 1015.5
20260508020008 9 168 35.4 43.5 0.00 0.00 0.00 32 1015.6
20260508014006 9 169 38.6 43.5 0.00 0.00 0.00 32 1015.7
20260508013006 9 163 40.2 51.5 0.00 0.00 0.00 32 1015.8
20260508012006 9 166 35.4 43.5 0.00 0.00 0.00 35 1016.0
20260508011006 9 173 41.8 46.7 0.00 0.00 0.00 34 1016.2
20260508010006 9 169 41.8 48.3 0.00 0.00 0.00 34 1015.9
20260508005006 9 175 40.2 43.5 0.00 0.00 0.00 34 1016.0
20260508004006 9 174 43.5 46.7 0.00 0.00 0.00 35 1016.1
20260508002006 8 176 29.0 33.8 0.00 0.00 0.00 42 1016.0
20260508001007 8 165 27.4 29.0 0.00 0.00 0.00 52 1016.4
20260508000006 8 163 30.6 35.4 0.00 0.00 0.00 54 1016.3
20260507235006 9 181 32.2 33.8 0.00 0.00 0.00 44 1016.3
20260507234006 8 185 32.2 35.4 0.00 0.00 0.00 46 1016.3
20260507232006 8 187 32.2 37.0 0.00 0.00 0.00 54 1016.7
20260507231006 9 176 38.6 43.5 0.00 0.00 0.00 48 1016.9
20260507230006 8 175 40.2 43.5 0.00 0.00 0.00 51 1016.9
20260507224006 8 168 33.8 38.6 0.00 0.00 0.00 56 1017.2
20260507222005 8 163 29.0 32.2 0.00 0.00 0.00 67 1017.0
20260507221006 7 159 25.7 27.4 0.00 0.00 0.00 67 1017.1
20260507220006 7 157 30.6 38.6 0.00 0.00 0.00 65 1017.1
20260507215006 7 161 29.0 37.0 0.00 0.00 0.00 66 1017.1
20260507214006 7 162 27.4 32.2 0.00 0.00 0.00 63 1017.0
20260507213006 7 165 29.0 32.2 0.00 0.00 0.00 63 1017.1
20260507212006 7 163 27.4 29.0 0.00 0.00 0.00 61 1017.3
20260507210007 7 185 27.4 32.2 0.00 0.00 0.00 62 1017.4
20260507205006 8 193 25.7 29.0 0.00 0.00 0.00 59 1017.6
20260507204006 8 194 22.5 25.7 0.00 0.00 0.00 59 1017.6
20260507203006 8 188 22.5 25.7 0.00 0.00 0.00 66 1017.6
20260507202006 8 185 27.4 33.8 0.00 0.00 0.00 59 1017.4
20260507201006 8 187 32.2 33.8 0.00 0.00 0.00 60 1017.7
20260507194006 8 174 27.4 32.2 0.00 0.00 0.00 66 1017.6
20260507193006 8 165 27.4 29.0 0.00 0.00 0.00 65 1017.6
20260507192006 8 171 24.1 27.4 0.00 0.00 0.00 66 1017.4
20260507191006 8 175 22.5 24.1 0.00 0.00 0.00 68 1017.4
20260507185006 8 165 22.5 24.1 0.00 0.00 0.00 71 1017.4
20260507184006 8 175 20.9 22.5 0.00 0.00 0.00 73 1017.2
20260507183006 8 169 19.3 20.9 0.00 0.00 0.00 72 1017.1
20260507182007 8 165 19.3 20.9 0.00 0.00 0.00 70 1017.1
20260507181006 8 147 19.3 20.9 0.00 0.00 0.00 68 1016.7
20260507175006 9 161 17.7 24.1 0.00 0.00 0.00 70 1016.9
20260507174006 8 168 19.3 20.9 0.00 0.00 0.00 70 1016.7
20260507173006 8 165 19.3 24.1 0.00 0.00 0.00 71 1016.8
20260507172006 9 145 20.9 24.1 0.00 0.00 0.00 69 1016.9
20260507171006 9 144 19.3 20.9 0.00 0.00 0.00 69 1017.2
20260507165006 10 147 20.9 22.5 0.00 0.00 0.00 69 1016.9
20260507164006 10 149 16.1 20.9 0.00 0.00 0.00 67 1017.0
20260507163007 10 154 12.9 14.5 0.00 0.00 0.00 65 1017.0
20260507161006 10 148 11.3 12.9 0.00 0.00 0.00 65 1017.1
20260507160006 10 148 11.3 14.5 0.00 0.00 0.00 65 1017.0
20260507155006 10 149 14.5 14.5 0.00 0.00 0.00 66 1017.1
20260507154008 11 159 12.9 17.7 0.00 0.00 0.00 65 1017.4
20260507153006 11 158 16.1 17.7 0.00 0.00 0.00 64 1017.1
20260507152006 11 148 17.7 20.9 0.00 0.00 0.00 66 1017.1
20260507151006 11 148 16.1 20.9 0.00 0.00 0.00 66 1017.1
20260507150006 11 154 17.7 17.7 0.00 0.00 0.00 64 1017.3
20260507145006 11 153 16.1 17.7 0.00 0.00 0.00 64 1017.2
20260507144007 11 155 16.1 22.5 0.00 0.00 0.00 61 1017.3
20260507143006 11 154 16.1 17.7 0.00 0.00 0.00 60 1017.3
20260507141007 12 154 17.7 24.1 0.00 0.00 0.00 56 1017.0
20260507140006 12 143 20.9 27.4 0.00 0.00 0.00 60 1017.1
20260507135005 12 155 17.7 20.9 0.00 0.00 0.00 59 1017.3
20260507134005 13 150 16.1 22.5 0.00 0.00 0.00 53 1017.4
20260507133005 12 153 20.9 29.0 0.00 0.00 0.00 57 1017.3
20260507132006 12 154 25.7 33.8 0.00 0.00 0.00 56 1017.3
20260507131006 13 160 32.2 37.0 0.00 0.00 0.00 55 1017.3
20260507125006 13 146 22.5 33.8 0.00 0.00 0.00 53 1017.3
20260507124006 14 141 17.7 24.1 0.00 0.00 0.00 50 1017.3
20260507123006 12 157 24.1 35.4 0.00 0.00 0.00 51 1017.3
20260507120006 12 173 19.3 24.1 0.00 0.00 0.00 52 1017.6
20260507114006 12 162 30.6 33.8 0.00 0.00 0.00 50 1017.6
20260507112009 12 149 30.6 38.6 0.00 0.00 0.00 48 1017.6
20260507111005 12 155 24.1 29.0 0.00 0.00 0.00 52 1017.6
20260507110005 11 167 22.5 27.4 0.00 0.00 0.00 52 1017.8
20260507105006 11 165 27.4 29.0 0.00 0.00 0.00 50 1017.8
20260507104006 12 152 22.5 27.4 0.00 0.00 0.00 51 1017.9
20260507103006 12 157 17.7 24.1 0.00 0.00 0.00 55 1018.1
20260507102007 11 147 19.3 24.1 0.00 0.00 0.00 56 1018.1
20260507101006 11 156 19.3 22.5 0.00 0.00 0.00 57 1018.1
20260507100006 11 167 17.7 22.5 0.00 0.00 0.00 57 1017.9
20260507094005 11 159 22.5 25.7 0.00 0.00 0.00 59 1018.0
20260507093006 11 148 20.9 24.1 0.00 0.00 0.00 57 1018.0
20260507092006 11 154 19.3 20.9 0.00 0.00 0.00 58 1017.9
20260507091006 12 149 17.7 20.9 0.00 0.00 0.00 57 1017.9
20260507090006 12 149 19.3 22.5 0.00 0.00 0.00 54 1017.6
20260507085006 11 158 19.3 22.5 0.00 0.00 0.00 59 1017.9
20260507082006 10 166 17.7 20.9 0.00 0.00 0.00 63 1018.0
20260507081006 10 165 19.3 20.9 0.00 0.00 0.00 62 1017.9